Tiempo cada hora Alkmaar

Hoy, 30 Julio, Viernes

Tiempo Temperatura Precipitaciones Viento Presión Humedad
00:00 +16°C° 0 mm 7 mps 756 mmHg 81%
01:00 +15°C° 0 mm 6 mps 756 mmHg 83%
02:00 +15°C° 0 mm 6 mps 756 mmHg 85%
03:00 +14°C° 0 mm 5 mps 755 mmHg 88%
04:00 +15°C° 0 mm 5 mps 755 mmHg 85%
05:00 +15°C° 0 mm 5 mps 755 mmHg 81%
06:00 +15°C° 0 mm 5 mps 755 mmHg 78%
07:00 +16°C° 0 mm 5 mps 755 mmHg 75%
08:00 +17°C° 0 mm 5 mps 755 mmHg 72%
09:00 +17°C° 0 mm 5 mps 754 mmHg 69%
10:00 +19°C° 0 mm 6 mps 754 mmHg 65%
11:00 +21°C° 0 mm 7 mps 754 mmHg 61%
12:00 +22°C° 0 mm 7 mps 753 mmHg 57%
13:00 +21°C° 0.3 mm 7 mps 753 mmHg 65%
14:00 +20°C° 0.3 mm 7 mps 753 mmHg 73%
15:00 +18°C° 0.3 mm 7 mps 752 mmHg 80%
16:00 +18°C° 0.1 mm 8 mps 752 mmHg 76%
17:00 +18°C° 0.1 mm 9 mps 752 mmHg 72%
18:00 +18°C° 0.1 mm 10 mps 751 mmHg 68%
19:00 +18°C° 0.2 mm 10 mps 751 mmHg 72%
20:00 +17°C° 0.2 mm 11 mps 751 mmHg 76%
21:00 +16°C° 0.2 mm 11 mps 750 mmHg 80%
22:00 +16°C° 0.3 mm 11 mps 750 mmHg 83%
23:00 +14°C° 0.3 mm 11 mps 750 mmHg 86%

Mañana, 31 Julio, Sábado

Tiempo Temperatura Precipitaciones Viento Presión Humedad
00:00 +14°C° 0.3 mm 11 mps 750 mmHg 89%
01:00 +14°C° 0.2 mm 11 mps 750 mmHg 88%
02:00 +14°C° 0.2 mm 12 mps 750 mmHg 88%
03:00 +14°C° 0.2 mm 12 mps 750 mmHg 87%
04:00 +14°C° 0.3 mm 11 mps 751 mmHg 88%
05:00 +14°C° 0.3 mm 11 mps 751 mmHg 88%
06:00 +14°C° 0.3 mm 10 mps 752 mmHg 88%
07:00 +16°C° 0.3 mm 10 mps 752 mmHg 87%
08:00 +17°C° 0.3 mm 10 mps 753 mmHg 86%
09:00 +17°C° 0.3 mm 9 mps 753 mmHg 85%
10:00 +17°C° 0.5 mm 9 mps 754 mmHg 85%
11:00 +17°C° 0.5 mm 10 mps 754 mmHg 86%
12:00 +17°C° 0.5 mm 10 mps 754 mmHg 86%
13:00 +17°C° 0.2 mm 9 mps 755 mmHg 84%
14:00 +18°C° 0.2 mm 8 mps 755 mmHg 81%
15:00 +18°C° 0.2 mm 7 mps 755 mmHg 79%
16:00 +17°C° 0.1 mm 6 mps 755 mmHg 79%
17:00 +17°C° 0.1 mm 6 mps 756 mmHg 79%
18:00 +17°C° 0.1 mm 5 mps 756 mmHg 79%
19:00 +17°C° 0 mm 4 mps 756 mmHg 83%
20:00 +16°C° 0 mm 3 mps 756 mmHg 87%
21:00 +14°C° 0 mm 3 mps 756 mmHg 91%
22:00 +14°C° 0 mm 3 mps 756 mmHg 91%
23:00 +15°C° 0 mm 2 mps 756 mmHg 92%

Pasado mañana, 1 Agosto, Domingo

Tiempo Temperatura Precipitaciones Viento Presión Humedad
00:00 +14°C° 0 mm 2 mps 756 mmHg 93%
01:00 +14°C° 0.2 mm 2 mps 756 mmHg 93%
02:00 +14°C° 0.2 mm 2 mps 756 mmHg 94%
03:00 +14°C° 0.2 mm 2 mps 755 mmHg 95%
04:00 +15°C° 0.2 mm 2 mps 755 mmHg 92%
05:00 +15°C° 0.2 mm 2 mps 755 mmHg 90%
06:00 +16°C° 0.2 mm 2 mps 755 mmHg 87%
07:00 +18°C° 0.2 mm 2 mps 755 mmHg 79%
08:00 +19°C° 0.2 mm 3 mps 755 mmHg 72%
09:00 +21°C° 0.2 mm 3 mps 755 mmHg 64%
10:00 +21°C° 0.3 mm 4 mps 756 mmHg 64%
11:00 +21°C° 0.3 mm 4 mps 756 mmHg 64%
12:00 +21°C° 0.3 mm 5 mps 756 mmHg 64%
13:00 +20°C° 0.3 mm 5 mps 756 mmHg 67%
14:00 +20°C° 0.3 mm 5 mps 757 mmHg 70%
15:00 +19°C° 0.3 mm 5 mps 757 mmHg 73%
16:00 +17°C° 0.1 mm 5 mps 757 mmHg 73%
17:00 +17°C° 0.1 mm 5 mps 757 mmHg 74%
18:00 +16°C° 0.1 mm 5 mps 757 mmHg 74%
19:00 +15°C° 0 mm 4 mps 758 mmHg 75%
20:00 +14°C° 0 mm 4 mps 758 mmHg 76%
21:00 +13°C° 0 mm 4 mps 758 mmHg 76%
22:00 +13°C° 0 mm 4 mps 758 mmHg 76%
23:00 +13°C° 0 mm 4 mps 758 mmHg 77%

2 Agosto, Lunes

Tiempo Temperatura Precipitaciones Viento Presión Humedad
00:00 +12°C° 0 mm 4 mps 759 mmHg 77%
01:00 +12°C° 0 mm 4 mps 759 mmHg 78%
02:00 +12°C° 0 mm 4 mps 759 mmHg 79%
03:00 +12°C° 0 mm 4 mps 759 mmHg 79%
04:00 +13°C° 0.1 mm 4 mps 759 mmHg 78%
05:00 +14°C° 0.1 mm 4 mps 759 mmHg 76%
06:00 +15°C° 0.1 mm 4 mps 759 mmHg 75%
07:00 +17°C° 0 mm 4 mps 759 mmHg 69%
08:00 +17°C° 0 mm 4 mps 759 mmHg 63%
09:00 +18°C° 0 mm 3 mps 760 mmHg 57%
10:00 +19°C° 0 mm 4 mps 760 mmHg 55%
11:00 +19°C° 0 mm 4 mps 760 mmHg 53%
12:00 +19°C° 0 mm 4 mps 760 mmHg 51%
13:00 +19°C° 0 mm 4 mps 760 mmHg 53%
14:00 +19°C° 0 mm 4 mps 760 mmHg 55%
15:00 +19°C° 0 mm 4 mps 760 mmHg 56%
16:00 +18°C° 0 mm 4 mps 760 mmHg 59%
17:00 +18°C° 0 mm 3 mps 760 mmHg 62%
18:00 +17°C° 0 mm 3 mps 760 mmHg 64%
19:00 +16°C° 0 mm 3 mps 761 mmHg 68%
20:00 +15°C° 0 mm 2 mps 761 mmHg 71%
21:00 +14°C° 0 mm 2 mps 761 mmHg 75%
22:00 +13°C° 0 mm 2 mps 761 mmHg 76%
23:00 +13°C° 0 mm 2 mps 761 mmHg 77%

3 Agosto, Martes

Tiempo Temperatura Precipitaciones Viento Presión Humedad
00:00 +13°C° 0 mm 2 mps 761 mmHg 78%
01:00 +13°C° 0 mm 2 mps 761 mmHg 79%
02:00 +13°C° 0 mm 2 mps 761 mmHg 80%
03:00 +13°C° 0 mm 2 mps 761 mmHg 81%
04:00 +14°C° 0 mm 2 mps 761 mmHg 79%
05:00 +14°C° 0 mm 2 mps 761 mmHg 76%
06:00 +15°C° 0 mm 2 mps 761 mmHg 74%
07:00 +16°C° 0 mm 2 mps 761 mmHg 68%
08:00 +18°C° 0 mm 2 mps 761 mmHg 62%
09:00 +19°C° 0 mm 3 mps 762 mmHg 56%
10:00 +19°C° 0 mm 3 mps 761 mmHg 54%
11:00 +20°C° 0 mm 3 mps 761 mmHg 52%
12:00 +20°C° 0 mm 4 mps 761 mmHg 50%
13:00 +20°C° 0 mm 4 mps 761 mmHg 50%
14:00 +20°C° 0 mm 4 mps 761 mmHg 50%
15:00 +20°C° 0 mm 4 mps 761 mmHg 50%
16:00 +19°C° 0 mm 4 mps 762 mmHg 55%
17:00 +19°C° 0 mm 3 mps 762 mmHg 59%
18:00 +18°C° 0 mm 3 mps 762 mmHg 63%
19:00 +16°C° 0 mm 3 mps 762 mmHg 69%
20:00 +15°C° 0 mm 2 mps 762 mmHg 75%
21:00 +14°C° 0 mm 2 mps 762 mmHg 80%
22:00 +14°C° 0 mm 2 mps 762 mmHg 81%
23:00 +13°C° 0 mm 2 mps 762 mmHg 83%

4 Agosto, Miércoles

Tiempo Temperatura Precipitaciones Viento Presión Humedad
00:00 +13°C° 0 mm 2 mps 762 mmHg 84%
01:00 +12°C° 0 mm 3 mps 762 mmHg 85%
02:00 +11°C° 0 mm 3 mps 762 mmHg 87%
03:00 +11°C° 0 mm 3 mps 762 mmHg 88%
04:00 +12°C° 0 mm 3 mps 762 mmHg 86%
05:00 +13°C° 0 mm 3 mps 762 mmHg 83%
06:00 +13°C° 0 mm 3 mps 762 mmHg 81%
07:00 +16°C° 0 mm 3 mps 762 mmHg 73%
08:00 +18°C° 0 mm 3 mps 762 mmHg 65%
09:00 +19°C° 0 mm 3 mps 762 mmHg 58%
10:00 +20°C° 0 mm 3 mps 762 mmHg 54%
11:00 +21°C° 0 mm 3 mps 762 mmHg 51%
12:00 +23°C° 0 mm 2 mps 762 mmHg 47%
13:00 +23°C° 0 mm 2 mps 761 mmHg 48%
14:00 +23°C° 0 mm 2 mps 761 mmHg 48%
15:00 +23°C° 0 mm 2 mps 761 mmHg 48%
16:00 +21°C° 0.1 mm 2 mps 761 mmHg 54%
17:00 +21°C° 0.1 mm 2 mps 761 mmHg 59%
18:00 +20°C° 0.1 mm 2 mps 760 mmHg 65%
19:00 +19°C° 0.1 mm 2 mps 760 mmHg 69%
20:00 +18°C° 0.1 mm 3 mps 760 mmHg 73%
21:00 +17°C° 0.1 mm 3 mps 760 mmHg 77%
22:00 +17°C° 0.1 mm 3 mps 760 mmHg 76%
23:00 +17°C° 0.1 mm 3 mps 760 mmHg 75%
Mostrar más

Necesitamos Su Consentimiento

Meteoprog y nuestros Proveedores de Servicios pueden almacenar y acceder a sus datos personales como cookies, identificadores de dispositivo u otras tecnologías similares de su dispositivo y procesar dichos datos para personalizar contenido y anuncios, además de ofrecer funciones de redes sociales y analizar el tráfico.

  • Almacenar y/o acceder a información en su dispositivo

    Se puede almacenar o acceder a cookies, identificadores de dispositivo u otra información de su dispositivo para los fines anteriormente indicados.

  • Anuncios y contenido personalizados, medición de anuncios y contenido, percepciones del público, y desarrollo de productos

    Los anuncios y el contenido pueden personalizarse en base a su perfil. Se pueden añadir más datos para personalizar mejor los anuncios y contenidos. Se puede medir el rendimiento de los anuncios y contenidos. Se puede obtener la percepción sobre el público que ha visto los anuncios y contenidos. Dichos datos pueden usarse para desarrollar o mejorar la experiencia del usuario, sistemas y software.

Al hacer clic en ‘Estoy De Acuerdo’ usted permitirá el uso de las cookies, identificadores de dispositivo, balizas web u otras tecnologías similares indicadas. Su configuración puede cambiarse desde el navegador de su dispositivo.

Para ciertos fines, los intereses legítimos pueden ser considerados por encima del consentimiento. Puede leer más sobre ello en nuestra Política de Privacidad y Cookies.